Home > Weather > Baden-Baden > Past weeks

Flag for Germany Past Weather in Baden-Baden, Baden-Württemberg, Germany — Yesterday and Last 2 Weeks

Now
66 °F

Scattered clouds.


Feels Like: 66 °F
Forecast: 58 / 74 °F
Wind: 7 mph from Southeast

Location: Karlsruhe - Baden Wurttemberg

Current Time: Jun 28, 2016 at 10:36:36 PM

Latest Report: Jun 28, 2016 at 9:50 PM


Visibility: N/A

Pressure: 29.98 "Hg

Humidity: 88%

Dew Point: 63 °F

Location of Baden-BadenLocation

Past Weather in Baden-Baden — Graph

°F

Baden-Baden Temperature Yesterday

Maximum temperature yesterday: 72 °F (at 3:50 PM)
Minimum temperature yesterday: 52 °F (at 5:20 AM)
Average temperature yesterday: 65 °F

High & Low Weather Summary for the Past Weeks

 TemperatureHumidityPressure
High91 °F (Jun 23, 4:20 PM)100% (Jun 14, 4:50 AM)30.27 "Hg (Jun 14, 4:50 AM)
Low50 °F (Jun 20, 4:50 AM)38% (Jun 23, 5:50 PM)29.56 "Hg (Jun 14, 11:50 AM)
Average66 °F78%29.98 "Hg
* Reported Jun 13 9:20 PM — Jun 28 9:20 PM, Baden-Baden, Weather by CustomWeather, © 2016

Note: Actual official high and low records may vary slightly from our data, if they occured in-between our weather recording intervals... More about our weather records

Advertising

Baden-Baden Weather History for the Previous 24 Hours

Scroll right to see more
 ConditionsComfort  
Time TempWeatherWind HumidityBarometerVisibility
9:20 PM
Tue, Jun 28
66 °FScattered showers. Scattered clouds.3 mph88%29.98 "HgN/A
8:50 PM68 °FScattered showers. Scattered clouds.2 mph83%29.98 "HgN/A
8:20 PM68 °FSunny.2 mph83%29.98 "Hg10 mi
7:50 PM68 °FScattered showers. Broken clouds.2 mph83%30.01 "HgN/A
7:20 PM68 °FBroken clouds.3 mph83%30.01 "HgN/A
6:50 PM68 °FBroken clouds.1 mph83%30.01 "HgN/A
6:20 PM68 °FSprinkles. Broken clouds.2 mph83%30.01 "HgN/A
5:50 PM68 °FPartly sunny.2 mph78%30.01 "HgN/A
5:20 PM68 °FScattered clouds.2 mph78%30.01 "HgN/A
4:50 PM70 °FPassing clouds.3 mph73%30.01 "HgN/A
4:20 PM70 °FPassing clouds.3 mph73%30.04 "HgN/A
3:50 PM68 °FSunny.2 mph83%30.04 "Hg10 mi
3:20 PM68 °FPartly sunny.6 mph83%30.04 "HgN/A
2:50 PM64 °FScattered clouds.7 mph88%30.04 "HgN/A
2:20 PM64 °FScattered showers. Passing clouds.10 mph88%30.07 "HgN/A
1:50 PM73 °FScattered showers. Scattered clouds.5 mph65%30.04 "HgN/A
1:20 PM72 °FBroken clouds.3 mph65%30.07 "HgN/A
12:50 PM72 °FScattered clouds.5 mph69%30.07 "HgN/A
12:20 PM72 °FBroken clouds.6 mph69%30.07 "HgN/A
11:50 AM70 °FScattered clouds.5 mph73%30.07 "HgN/A
11:20 AM70 °FSunny.2 mph73%30.09 "Hg10 mi
10:50 AM68 °FPassing clouds.7 mph78%30.09 "HgN/A
10:20 AM68 °FPassing clouds.6 mph78%30.09 "HgN/A
9:50 AM66 °FScattered clouds.7 mph83%30.09 "HgN/A
9:20 AM66 °FScattered clouds.5 mph83%30.09 "HgN/A
8:50 AM64 °FPartly sunny.3 mph88%30.09 "HgN/A
8:20 AM64 °FBroken clouds.3 mph88%30.09 "HgN/A
7:50 AM64 °FPartly sunny.2 mph88%30.09 "HgN/A
7:20 AM63 °FPartly sunny.No wind94%30.09 "HgN/A
6:50 AM61 °FPartly sunny.2 mph94%30.09 "HgN/A
6:20 AM61 °FPassing clouds.1 mph94%30.09 "HgN/A
5:50 AM59 °FPassing clouds.3 mph94%30.09 "HgN/A
5:20 AM61 °FPassing clouds.6 mph88%30.09 "HgN/A
4:50 AM61 °FPartly cloudy.2 mph94%30.09 "HgN/A
1:20 AM63 °FClear.6 mph83%30.12 "Hg10 mi
11:50 PM
Mon, Jun 27
64 °FClear.5 mph83%30.12 "Hg10 mi
11:20 PM64 °FClear.3 mph83%30.15 "Hg10 mi
10:50 PM66 °FPartly cloudy.5 mph73%30.12 "HgN/A
10:20 PM66 °FBroken clouds.3 mph78%30.12 "HgN/A
Weather by CustomWeather, © 2016

See weather overviewHow to use our weather pages